Regional Weather Roundup
Issued by NWS

Home | Current Version | Previous Version | Text Only | Print | Product List | Glossary Off
Versions: 1 2 3 4 5 6 7 8 9 10 11 12 13 14 15 16 17 18 19 20 21 22 23 24 25 26 27 28 29 30 31 32 33 34 35 36 37 38 39 40 41 42 43 44 45 46 47 48 49 50

000
ASUS45 KPSR 091410
RWRAZ

ARIZONA HOURLY REGIONAL WEATHER ROUNDUP
NATIONAL WEATHER SERVICE PHOENIX AZ
700 AM MST TUE FEB 09 2016

NOTE: FAIR INDICATES FEW OR NO CLOUDS BELOW 12,000 FEET WITH NO
SIGNIFICANT WEATHER AND/OR OBSTRUCTIONS TO VISIBILITY.

AZZ001>003-036-091500-
NORTHWEST ARIZONA

CITY           SKY/WX    TMP DP  RH WIND       PRES   REMARKS
BULLHEAD CITY  CLEAR     63  27  25 N25G35    30.28R
KINGMAN        CLEAR     42  24  49 E8        30.36R
$$

AZZ004>008-015-016-018-091500-
NORTH CENTRAL ARIZONA

CITY           SKY/WX    TMP DP  RH WIND       PRES   REMARKS
GRAND CANYON   PTCLDY    24  18  77 NE7       30.48R WCI  16
WILLIAMS       CLEAR     27  16  63 S8        30.48S WCI  18
PRESCOTT       CLEAR     30  21  69 SW7       30.38S WCI  23
FLAGSTAFF      CLEAR     32  15  49 E8        30.46R WCI  25
PAYSON         CLEAR     46  18  31 NE12      30.37R
PAGE           CLEAR     30  24  78 CALM      30.49R HAZE
$$

AZZ009>014-017-091500-
NORTHEAST ARIZONA

CITY           SKY/WX    TMP DP  RH WIND       PRES   REMARKS
WINSLOW        MOCLDY    22  18  85 CALM      30.47R
SAINT JOHNS    PTCLDY    21  16  81 CALM      30.45R
WINDOW ROCK    CLEAR     23   0  36 CALM      30.45S
SHOW LOW       PTCLDY    25  18  74 CALM      30.47R
$$

AZZ023-091500-
GREATER PHOENIX AREA

CITY           SKY/WX    TMP DP  RH WIND       PRES   REMARKS
PHOENIX        CLEAR     60  25  26 E12       30.18R
BUCKEYE        CLEAR     50  23  34 N8        30.22R
GLENDALE       CLEAR     55  28  35 N7        30.21R
LUKE AFB       CLEAR     50  29  43 NW3       30.19R
DEER VALLEY    CLEAR     58  22  24 NE10      30.20S
SCOTTSDALE     CLEAR     63  20  19 NE14      30.21S
MESA-GATEWAY   CLEAR     48  28  46 SE5       30.20R
CHANDLER       CLEAR     50  28  43 N6        30.19R
$$

AZZ027-028-091500-
SOUTHWEST MARICOPA COUNTY AND PINAL COUNTY

CITY           SKY/WX    TMP DP  RH WIND       PRES   REMARKS
CASA GRANDE    CLEAR     57  23  26 NE9       30.19S
GILA BEND      FAIR      53  26  35 SE5       30.17R
$$

AZZ503-504-507>509-091500-
SOUTHEAST ARIZONA

CITY           SKY/WX    TMP DP  RH WIND       PRES   REMARKS
TUCSON         CLEAR     47  21  35 S7        30.22R
DAVIS-MONTHAN  CLEAR     56  19  23 SE13      30.20R
RYAN FIELD     CLEAR     45  25  45 CALM      30.22R
NOGALES        CLEAR     45  17  32 NE8       30.25R
SIERRA VISTA   MOCLDY    36  20  52 S5        30.31R WCI  32
DOUGLAS        PTCLDY    26  16  65 NW7       30.31R WCI  18
SAFFORD        CLEAR     45  24  43 SE15      30.32R
$$

AZZ020-021-025-026-031-091500-
SOUTHWEST ARIZONA

CITY           SKY/WX    TMP DP  RH WIND       PRES   REMARKS
YUMA           NOT AVBL
$$

CAZ031-033-041-043-047-048-061-091500-
SOUTHERN CALIFORNIA

CITY           SKY/WX    TMP DP  RH WIND       PRES   REMARKS
DOWNTOWN L.A.  CLEAR     57  30  35 N3        30.12R
L.A. AIRPORT   CLEAR     63  25  23 CALM      30.13R
SAN DIEGO      CLEAR     62  28  27 N3        30.12S
BURBANK        CLEAR     54  27  35 CALM      30.14R
ONTARIO        CLEAR     52  27  38 W3        30.16R
RIVERSIDE      CLEAR     58  26  29 NE9       30.17R
PALM SPRINGS   CLEAR     66  25  21 W7        30.21S
EL CENTRO NAS  CLEAR     48  22  35 W7        30.19R
IMPERIAL       CLEAR     50  26  39 W8        30.17R
BLYTHE         CLEAR     53  27  36 CALM      30.22R
NEEDLES        CLEAR     60  27  28 N8        30.28R
$$

NVZ020-UTZ003-091500-
SOUTHERN NEVADA-UTAH

CITY           SKY/WX    TMP DP  RH WIND       PRES   REMARKS
LAS VEGAS      CLEAR     47  27  45 CALM      30.34S
SALT LAKE CITY PTCLDY    26  22  84 CALM      30.60S FOG
$$

NMZ009-TXZ055-091500-
NEW MEXICO-WEST TEXAS

CITY           SKY/WX    TMP DP  RH WIND       PRES   REMARKS
ALBUQUERQUE    CLOUDY    30  21  69 N7        30.42R WCI  23
EL PASO        CLEAR     33  15  47 NE7       30.38R WCI  27
$$


........................KEY........................
SKY/WX - SKY CONDITION/WEATHER
TMP    - TEMPERATURE IN FAHRENHEIT
DP     - DEW POINT IN FAHRENHEIT
RH     - RELATIVE HUMIDITY IN PERCENT
WIND   - DIRECTION AND SPEED IN MILES PER HOUR (MPH)
VRB    - VARIABLE WIND DIRECTION
PRES   - MEAN SEA LEVEL PRESSURE IN INCHES OF MERCURY
         F - FALLING PRESSURE   R - RISING PRESSURE
         S - STEADY PRESSURE
VSB    - VISIBILITY IN MILES
HX     - HEAT INDEX IN FAHRENHEIT
WCI    - WIND CHILL INDEX IN FAHRENHEIT
TC     - TEMPERATURE IN CELSIUS WHICH IS ALSO KNOWN AS
         TEMPERATURE IN CENTIGRADE
AFB    - AIR FORCE BASE
         LUKE AFB IS LUKE AIR FORCE BASE
         DAVIS-MONTHAN IS DAVIS-MONTHAN AIR FORCE BASE
NAS    - NAVAL AIR STATION
         EL CENTRO NAS IS EL CENTRO NAVAL AIR STATION
N/A    - NOT AVAILABLE




USA.gov is the U.S. government's official web portal to all federal, state and local government web resources and services.